GFSMW_sfc_thetae_003.txt.gz
Theta_e
340 343 346 349 351 352 351 351 351 351 349 349 342 342 338 340 340 341 345 344 344 344 344 342 344 343 343 341 341 342 340 341 344 340 339 341 344 345 348 347 346 349 351
338 341 343 347 348 350 351 349 349 350 349 348 344 341 340 340 340 342 343 344 343 343 342 342 342 341 342 342 342 342 338 341 342 334 335 328 333 342 346 346 345 345 349
337 338 338 336 344 349 350 347 348 349 348 346 343 341 338 336 336 338 338 342 343 342 341 341 341 342 341 341 342 342 337 336 341 340 333 327 324 334 341 343 343 344 344
341 337 328 338 344 348 350 350 348 348 347 346 341 337 336 332 333 336 335 339 343 342 342 341 342 343 341 340 341 342 338 338 335 338 343 338 337 329 328 337 342 344 343
340 341 334 342 347 350 348 340 350 347 346 345 341 337 334 334 335 335 334 335 338 340 343 341 341 342 342 342 341 339 337 336 335 333 334 335 337 338 332 327 331 339 342
343 346 339 337 332 348 347 341 347 345 342 340 339 336 335 335 333 333 334 335 337 338 341 341 340 341 342 341 342 341 338 337 336 335 336 334 333 332 332 327 328 330 336
343 336 334 333 334 338 349 349 344 339 340 338 338 337 333 332 332 334 335 333 334 336 338 339 338 340 342 341 341 341 340 338 337 336 336 337 336 338 335 332 329 329 335
331 330 334 334 340 342 343 344 340 337 338 338 337 337 334 333 335 336 335 334 333 335 338 338 340 341 342 341 341 340 338 337 336 335 338 338 339 340 338 333 330 324 328
330 334 334 339 339 337 339 340 339 338 337 337 338 337 335 335 336 338 337 336 334 337 338 340 339 340 340 340 338 337 339 339 337 337 339 338 336 335 339 337 333 329 322
333 332 331 330 335 336 336 338 339 337 337 339 338 337 336 335 335 335 335 336 337 337 338 338 338 338 338 339 339 337 339 337 337 337 336 334 332 333 338 337 335 336 328
331 334 330 332 334 335 336 335 337 337 336 337 339 335 335 335 334 334 335 337 336 338 337 337 337 336 336 337 338 338 338 337 335 336 336 336 337 337 337 336 336 333 333
334 334 330 332 334 334 334 335 335 336 336 339 339 335 333 337 335 335 336 337 337 337 336 337 337 335 336 336 336 336 337 336 335 335 333 334 336 332 333 335 335 335 334
330 330 332 334 336 337 334 330 329 335 336 340 336 338 336 335 333 334 336 336 335 335 336 337 335 335 333 332 330 330 329 327 326 327 327 328 331 329 330 331 331 333 334
333 333 335 335 339 341 341 333 333 335 337 338 337 335 336 337 338 337 337 335 336 333 334 336 334 333 332 330 330 330 327 325 323 323 323 322 323 325 327 325 323 327 330
336 336 334 337 337 339 340 336 336 335 335 337 336 334 334 337 339 337 337 336 335 333 333 333 331 330 331 331 329 328 324 322 320 319 319 319 323 322 322 320 319 323 325
336 336 336 337 335 338 337 339 340 338 338 337 337 337 335 335 337 336 334 334 333 332 332 328 323 320 323 326 327 327 324 321 318 315 314 314 316 321 320 318 319 321 320
332 332 331 331 329 328 330 330 333 335 338 335 339 338 337 335 335 334 332 330 326 326 323 320 314 309 309 317 323 326 323 322 319 319 320 320 320 317 314 311 311 312 316
329 326 326 324 322 322 323 326 331 332 334 337 336 336 336 334 333 332 329 325 323 319 318 314 309 306 307 312 320 319 313 309 309 311 311 309 310 314 309 305 304 305 305
324 322 321 319 319 319 321 323 327 329 331 332 332 333 334 332 330 326 323 318 314 311 308 308 308 306 305 308 312 311 308 305 304 306 308 308 311 314 311 307 306 307 307
320 319 320 318 316 315 314 312 310 311 314 323 326 325 325 323 321 321 317 313 310 308 306 305 304 306 304 304 307 309 307 304 304 304 303 307 306 306 309 311 309 307 308
320 318 316 313 313 311 310 308 308 308 311 314 315 315 315 314 311 309 308 306 306 305 304 304 304 304 304 303 303 305 307 305 304 302 301 302 304 301 301 302 301 301 305
318 316 312 311 311 310 308 306 305 307 309 310 310 310 310 309 308 306 305 304 304 302 302 303 302 303 304 304 302 303 304 306 302 302 303 303 301 300 301 304 303 304 306
316 314 311 310 310 309 308 305 306 308 308 307 307 307 308 307 307 305 304 303 303 302 301 301 301 301 303 303 302 303 304 305 304 304 304 303 300 300 302 303 304 304 303
314 313 311 309 308 309 309 308 308 309 308 308 308 308 307 307 306 306 305 303 302 301 301 300 300 300 300 301 303 304 305 306 305 306 304 304 304 303 303 302 299 299 299
314 314 311 309 309 310 309 310 310 307 304 302 300 300 299 298 297 298 299 299 296 300 300 299 298 295 294 294 295 299 302 299 297 296 297 297 297 297 297 297 296 295 296
313 313 313 313 313 312 311 310 310 306 300 297 297 297 297 296 294 292 292 297 295 294 292 294 294 291 293 293 292 292 293 295 295 297 294 293 292 292 292 292 294 294 296

GFSMW_sfc_thetae_006.txt.gz
Theta_e
330 334 344 347 347 349 349 349 348 349 346 343 340 338 338 338 339 341 342 344 343 347 344 341 341 339 340 339 342 338 335 336 339 335 336 340 344 344 344 345 347 348 348
333 333 331 332 335 348 349 347 347 346 345 344 341 339 337 337 337 336 340 344 343 342 341 339 338 339 339 338 339 338 336 336 339 332 330 327 331 339 342 344 344 345 348
331 331 331 333 334 330 344 347 345 344 345 343 341 338 337 335 333 334 335 338 341 341 340 340 338 338 340 339 340 339 336 333 337 336 330 324 323 330 337 341 342 344 342
327 332 327 325 329 332 344 348 344 345 344 343 337 335 333 330 331 332 334 335 338 339 340 339 339 339 338 337 339 341 338 335 333 335 340 334 332 326 323 333 339 342 341
333 331 328 330 337 336 342 342 345 344 342 341 337 334 330 331 332 332 332 333 333 336 339 339 338 339 339 338 339 338 335 335 333 331 331 332 333 332 327 325 330 338 341
335 333 332 335 338 346 339 342 344 342 339 337 335 333 331 329 329 329 330 332 332 334 337 340 338 339 339 339 340 339 335 336 333 332 332 332 330 329 329 327 329 330 333
337 334 332 336 341 333 337 345 340 336 335 335 334 334 329 329 329 331 331 331 330 333 335 337 336 336 339 339 340 338 336 335 334 332 332 334 333 335 332 330 329 328 333
336 334 331 336 341 345 344 341 337 334 334 334 334 332 332 332 332 334 333 332 331 332 335 336 336 338 339 339 339 340 339 337 335 334 334 334 336 337 337 333 330 325 327
329 332 337 338 336 341 339 338 335 333 334 334 334 332 332 331 331 332 333 332 332 336 335 336 336 337 338 338 338 337 336 336 335 334 336 335 336 337 337 336 334 329 322
329 330 336 334 335 337 337 337 336 333 333 335 334 332 331 331 331 331 334 333 336 335 335 335 335 336 336 336 334 333 336 335 334 335 335 334 334 334 336 336 335 334 330
329 328 328 331 333 333 333 336 335 334 334 335 333 332 332 332 331 331 332 332 333 333 335 335 334 333 333 334 334 334 336 334 335 335 334 332 332 332 335 335 334 334 332
332 330 328 331 331 332 331 333 334 334 334 335 334 331 332 333 331 332 332 333 332 334 335 336 334 332 333 333 334 335 335 334 333 334 335 332 337 333 332 333 332 333 334
333 332 330 330 332 332 331 331 333 333 335 336 335 331 330 332 332 331 332 332 331 332 334 333 331 330 330 329 328 327 326 326 327 327 328 330 330 329 328 327 327 330 332
333 331 329 330 332 333 330 327 328 333 335 337 333 333 332 333 333 334 332 332 331 332 332 330 330 330 330 330 329 327 325 324 323 323 324 324 324 326 323 323 324 326 327
324 331 332 334 334 337 334 331 331 332 335 335 333 332 332 334 335 333 332 331 331 330 329 327 327 328 328 328 325 325 324 322 319 319 321 322 324 324 323 322 322 324 325
327 335 332 330 328 329 329 331 332 333 334 338 335 335 335 336 333 332 330 330 327 324 320 316 316 320 324 323 324 323 319 317 315 314 314 316 319 319 319 320 321 322 323
327 328 324 323 321 320 323 323 328 331 333 336 336 335 336 334 331 330 326 323 319 316 312 309 309 309 315 320 321 323 320 318 318 319 317 318 319 315 310 312 312 313 316
326 322 320 318 317 317 318 322 327 328 330 333 333 333 333 332 329 325 321 316 315 314 311 308 306 306 309 315 313 314 309 307 307 309 311 313 314 312 305 304 305 306 306
321 318 317 315 315 314 315 314 316 318 322 327 331 334 332 328 324 319 314 310 308 305 304 305 306 307 309 309 309 308 307 304 302 305 308 309 308 310 310 308 306 306 307
317 315 315 314 311 312 312 312 311 312 313 317 323 331 330 326 319 315 311 308 306 304 304 304 305 306 305 305 306 306 306 302 302 303 303 308 306 305 307 307 305 305 306
314 314 313 311 310 310 310 308 308 307 311 314 314 314 314 313 311 308 307 306 304 303 303 304 305 305 304 304 304 305 305 303 302 302 302 302 304 302 302 303 305 304 307
313 312 310 309 310 309 308 306 306 308 309 309 309 309 309 310 308 306 305 305 305 304 303 303 303 304 304 304 303 303 304 306 304 303 304 303 300 300 301 303 302 303 305
312 311 309 308 308 308 308 306 307 309 309 308 307 307 307 307 306 305 304 304 304 303 302 302 301 301 303 304 303 302 304 306 304 305 305 303 300 300 302 302 302 302 300
311 310 309 307 307 308 308 308 309 309 308 306 305 305 304 304 304 304 305 303 302 300 301 301 300 300 301 302 303 304 305 306 305 305 304 304 302 302 300 297 296 296 295
312 311 309 307 307 309 308 308 306 304 301 301 300 300 299 298 297 297 296 296 295 299 300 298 298 297 296 296 296 299 301 299 297 296 295 294 294 294 294 294 293 292 292
311 309 309 310 310 309 308 306 304 301 298 296 297 296 294 292 292 291 290 296 295 294 293 293 292 291 292 292 292 292 293 294 296 293 290 289 289 290 289 291 290 290 293

GFSMW_sfc_thetae_009.txt.gz
Theta_e
332 337 341 342 342 345 345 344 346 348 347 341 338 337 336 337 337 340 342 341 342 343 342 340 339 338 338 339 338 336 335 336 337 333 333 336 340 342 344 345 347 347 348
332 336 340 334 331 338 345 338 332 334 344 341 339 338 336 336 336 336 337 340 342 343 342 339 339 339 338 335 337 336 333 333 336 330 328 326 330 335 340 343 344 345 347
330 333 333 335 337 337 333 329 331 332 343 342 339 337 335 334 331 332 333 336 339 339 340 340 337 337 338 336 336 337 334 332 334 334 328 322 321 326 335 339 342 342 343
330 331 332 329 332 333 330 330 333 331 343 340 336 333 331 329 330 330 331 333 335 337 338 337 337 336 337 337 338 338 335 332 331 334 335 331 328 322 322 330 338 341 341
327 329 330 329 332 336 333 331 334 334 341 340 337 332 330 330 331 331 330 331 332 334 337 337 336 335 336 336 337 337 334 334 332 333 331 331 331 329 325 320 325 334 340
326 329 331 332 332 336 334 337 340 339 339 337 334 330 328 326 328 328 328 330 331 331 334 337 336 336 336 336 336 337 336 335 333 332 330 330 329 327 326 324 324 326 332
333 332 329 330 333 336 339 339 339 335 334 334 331 330 327 328 329 330 329 327 329 330 331 334 334 334 336 336 336 335 334 334 333 332 330 331 331 332 330 327 325 324 330
333 332 330 332 336 332 336 340 336 333 333 332 331 330 330 330 329 330 329 328 328 330 332 334 334 335 337 337 336 336 335 334 334 331 331 332 333 334 333 330 327 323 324
330 328 331 336 336 337 340 337 334 332 332 332 331 329 329 329 328 330 330 330 331 335 334 334 333 334 336 336 335 337 339 337 332 332 332 332 334 336 336 334 332 328 322
332 333 334 334 338 339 336 336 333 332 332 333 331 330 328 328 328 329 330 330 331 333 333 333 334 334 335 335 335 336 336 335 334 332 332 333 333 334 335 335 334 333 329
330 332 333 333 337 336 335 334 333 331 332 333 331 330 329 328 329 330 330 330 331 333 333 332 331 331 331 332 331 331 334 334 333 332 333 332 333 332 334 334 332 332 331
331 331 332 332 332 332 332 333 333 332 333 334 330 330 330 329 329 330 330 330 331 332 334 333 330 331 331 332 332 335 335 334 332 333 330 331 335 333 333 332 332 331 332
329 327 328 330 331 331 332 332 332 332 332 334 331 328 329 329 328 329 330 330 330 330 330 329 329 328 327 326 326 327 327 327 328 330 333 332 332 330 328 328 328 328 330
331 330 329 328 330 332 329 330 331 332 334 334 333 330 327 329 330 330 330 329 329 327 327 327 327 327 328 328 326 325 323 323 322 323 324 325 326 324 323 325 325 326 328
327 328 329 330 330 331 330 331 329 330 332 334 331 331 331 332 332 330 328 328 326 323 322 323 324 325 326 326 324 325 323 321 319 321 323 324 326 326 326 324 324 325 323
327 331 329 327 325 325 325 327 328 330 332 334 332 334 331 333 331 329 327 325 319 316 316 316 321 322 324 320 322 320 316 316 316 315 316 317 318 319 320 321 321 321 323
327 326 323 322 319 319 320 322 325 328 330 332 335 334 333 330 329 327 323 318 313 311 309 312 316 317 319 318 319 321 317 318 318 317 317 318 316 312 310 310 310 311 313
324 322 319 317 315 315 316 317 323 324 325 328 332 332 331 329 325 321 317 313 310 307 305 306 307 314 315 312 312 313 308 306 306 308 313 314 309 307 307 307 306 306 308
319 317 317 314 313 312 313 313 315 318 321 322 329 332 330 327 321 314 309 306 305 303 302 306 309 311 309 308 308 306 303 302 302 304 307 305 304 311 310 307 305 306 305
317 315 314 311 310 309 309 312 312 313 312 315 317 331 328 322 315 312 307 305 305 302 304 304 306 308 307 305 305 306 305 301 302 302 302 308 304 305 306 306 306 304 305
314 314 312 310 309 308 307 309 309 308 310 312 313 313 317 315 311 309 308 307 303 303 303 303 305 305 305 304 303 304 305 304 303 302 302 303 304 302 302 303 305 304 307
313 312 311 308 308 309 308 307 306 309 309 309 308 308 311 310 309 306 306 306 306 304 304 304 303 304 304 304 303 303 304 307 305 304 304 302 300 299 300 301 301 302 304
311 310 308 307 308 308 308 306 308 309 309 307 306 306 307 307 307 306 305 305 305 304 303 303 302 302 304 304 303 303 304 306 304 304 304 303 300 299 300 301 300 298 294
310 309 308 307 306 308 308 308 307 307 305 303 303 304 304 303 304 304 304 304 303 302 302 301 301 301 302 303 304 304 305 305 304 303 302 302 301 300 297 294 293 293 293
310 309 308 307 307 308 305 304 304 304 302 301 301 300 300 299 298 297 298 299 299 301 301 300 300 300 299 297 297 299 301 298 298 296 293 291 291 292 291 290 290 291 291
309 307 308 308 307 305 302 302 302 302 300 298 297 296 295 294 294 293 292 296 296 294 293 293 294 292 294 293 292 292 293 294 295 290 288 287 288 289 289 288 287 287 290

GFSMW_sfc_thetae_012.txt.gz
Theta_e
334 339 341 338 340 340 339 340 339 335 335 343 340 341 341 341 341 343 344 344 344 344 343 342 342 343 343 343 342 342 341 341 342 340 336 340 343 346 348 350 349 350 350
331 338 332 333 337 336 336 336 340 336 335 340 342 341 340 339 338 338 339 340 342 343 344 341 340 340 341 340 341 340 338 338 341 335 334 333 338 342 345 347 348 349 351
329 333 332 331 332 332 331 334 336 335 335 340 342 339 339 337 334 335 336 338 339 341 341 342 341 339 341 339 340 341 339 336 338 338 334 328 328 332 340 343 346 347 348
331 332 331 332 334 334 334 336 334 333 335 341 340 337 335 332 334 334 334 336 338 338 341 340 340 339 339 340 339 341 341 339 336 337 338 336 334 330 331 337 342 347 346
330 330 328 332 336 334 333 330 332 333 335 342 339 336 333 332 333 333 332 333 335 336 337 340 339 338 338 340 340 340 340 340 338 337 336 337 336 335 331 329 334 340 345
327 330 330 330 331 335 336 336 334 337 341 340 337 334 332 330 330 331 332 333 334 335 336 338 339 339 339 339 340 341 340 339 339 338 338 337 336 335 334 331 331 332 336
325 327 327 328 330 332 333 334 336 338 340 336 334 333 332 332 332 332 332 331 331 334 336 337 338 338 339 340 340 340 340 339 337 336 337 336 338 339 336 335 331 332 336
333 330 328 329 331 334 337 338 338 337 334 334 334 333 334 332 332 332 332 332 332 333 336 338 338 339 339 340 340 340 340 339 338 336 336 336 338 340 339 337 334 330 331
332 331 331 332 334 334 335 339 337 335 334 334 334 333 332 332 332 333 334 334 335 337 337 338 338 338 339 340 340 340 338 339 338 338 336 336 338 339 340 340 338 335 328
330 331 333 337 334 335 338 338 336 334 334 334 333 333 332 333 333 333 332 333 335 336 337 337 338 338 339 339 339 339 340 338 337 337 336 337 338 339 340 339 338 338 334
330 332 334 337 338 339 337 336 334 334 334 334 334 333 332 332 333 333 333 333 335 335 334 333 334 336 337 338 337 336 336 335 336 336 336 336 338 338 338 337 334 334 333
329 332 332 334 337 336 335 335 334 333 334 335 333 332 333 332 332 332 332 334 334 333 331 332 331 332 334 336 335 335 336 335 334 335 336 336 337 335 335 334 333 333 333
329 331 331 331 333 334 334 335 335 334 335 335 332 331 333 333 332 332 332 332 331 330 330 331 330 329 329 329 329 330 328 329 330 333 332 334 334 331 332 331 329 330 332
329 331 330 331 331 332 331 332 334 334 334 335 333 330 331 332 333 332 332 330 329 328 328 328 329 329 329 328 327 326 325 324 324 325 325 326 326 326 327 328 328 329 329
328 328 328 328 329 330 330 330 331 332 334 335 335 334 332 333 332 331 331 327 325 324 325 326 326 327 327 327 326 325 323 322 320 320 323 325 327 327 326 325 324 325 326
328 330 329 329 328 327 327 329 330 331 333 335 334 334 333 333 330 329 327 322 320 320 324 324 324 323 323 319 321 321 320 320 319 317 317 317 317 317 317 317 319 319 321
327 326 325 323 321 322 324 326 327 329 331 333 337 334 334 332 329 325 322 318 315 316 317 319 322 321 319 316 317 319 318 317 318 318 318 315 312 311 310 311 312 313 314
323 323 320 317 316 317 318 320 323 323 326 328 332 334 333 330 327 322 316 313 311 311 312 314 317 314 312 311 310 311 310 310 312 314 310 309 310 310 309 308 306 307 308
320 318 317 316 313 312 315 317 317 319 321 320 324 333 331 326 322 316 312 309 309 308 309 312 312 310 309 307 307 309 308 307 307 310 310 311 311 310 310 310 309 308 307
316 314 313 314 310 311 314 314 313 313 313 315 316 328 329 324 317 313 309 308 308 307 308 309 309 308 307 305 305 308 308 306 306 307 308 308 307 305 305 310 309 307 307
313 312 310 310 310 311 312 310 310 309 311 311 312 313 316 315 313 309 309 308 307 306 306 306 306 306 306 305 303 305 308 306 305 305 305 305 303 301 301 303 309 308 310
312 311 309 309 309 310 310 308 307 309 309 309 309 309 309 310 309 307 308 308 308 306 305 304 304 305 305 304 303 304 305 308 306 303 303 302 299 298 299 300 299 300 303
311 310 309 308 308 309 309 307 308 309 308 307 306 306 307 307 308 307 306 306 306 305 304 303 303 304 305 305 303 303 304 305 304 304 304 301 298 298 298 299 299 299 299
309 309 308 307 307 308 308 307 307 306 305 303 304 305 305 304 305 305 306 305 304 304 303 303 303 303 303 304 305 305 306 304 304 304 302 301 300 298 298 299 299 300 298
310 309 308 307 307 306 305 306 306 306 304 303 302 302 301 300 298 297 300 301 301 303 302 302 303 302 300 299 299 300 300 301 300 299 299 299 298 297 297 296 297 297 297
309 309 308 308 307 305 302 302 303 304 302 300 299 300 299 297 296 295 294 296 296 295 293 294 298 297 295 293 293 292 293 294 294 296 296 296 296 295 295 295 294 294 295

GFSMW_sfc_thetae_015.txt.gz
Theta_e
343 345 347 345 341 342 340 344 344 344 346 347 351 352 350 354 353 355 355 353 354 355 355 352 352 350 347 351 353 353 349 347 349 345 344 348 351 351 353 354 352 354 355
340 340 344 344 342 342 345 340 345 343 341 348 349 352 352 351 351 353 352 351 350 350 349 349 351 352 349 348 351 350 348 346 348 340 343 337 343 347 350 352 353 354 355
336 338 339 339 344 339 343 345 345 343 340 341 352 349 352 352 349 349 348 348 348 349 350 346 347 351 344 341 343 351 346 343 346 348 345 338 330 344 348 351 352 353 354
336 339 337 336 338 339 340 342 343 341 342 346 349 347 347 344 345 342 343 345 346 346 347 349 347 347 346 340 341 350 351 351 342 344 346 344 341 340 337 345 349 352 353
334 336 337 338 340 341 342 340 339 340 342 347 351 348 345 344 342 343 344 346 347 346 346 347 348 349 347 344 339 342 350 348 348 344 342 344 346 342 334 333 339 346 350
334 337 337 338 341 340 340 337 339 341 348 350 347 344 341 342 341 341 341 342 343 345 347 347 348 348 348 348 348 347 349 349 348 347 345 342 342 344 342 338 341 338 343
333 335 335 334 337 338 338 339 342 343 350 347 344 343 344 344 342 342 341 342 341 342 344 346 347 346 349 348 349 349 349 348 347 347 344 344 342 350 347 346 335 335 341
332 334 335 336 336 335 338 338 341 344 349 346 345 345 345 342 343 343 342 341 342 344 347 347 347 346 345 345 345 346 350 349 348 348 347 345 345 343 341 345 339 340 338
336 336 335 336 336 337 341 344 346 348 347 345 346 344 344 343 342 344 344 342 345 344 346 346 346 348 347 347 347 346 346 347 348 347 347 345 343 339 342 342 344 341 329
339 338 338 338 338 340 343 348 349 349 347 345 345 342 342 344 344 344 343 343 344 340 344 343 345 346 346 348 346 345 345 344 343 342 343 345 345 344 342 342 343 342 343
338 339 340 342 339 342 343 346 347 346 345 345 344 342 343 343 343 342 343 343 343 343 342 339 338 340 344 346 343 341 340 339 340 341 340 342 344 343 344 344 344 342 341
338 340 343 341 341 342 344 345 345 345 346 345 345 342 344 343 342 342 342 343 341 342 342 337 334 335 338 341 342 339 339 337 337 338 338 339 342 342 344 343 341 335 334
337 339 340 337 340 345 345 344 344 343 344 346 345 341 343 344 342 342 341 341 341 340 339 339 337 336 335 334 332 332 330 328 331 335 337 337 338 335 335 334 334 334 335
337 339 337 337 342 345 345 344 344 344 344 345 344 343 342 344 344 341 340 340 340 338 338 338 338 337 336 336 334 332 329 326 326 326 326 326 327 327 329 329 328 331 331
336 333 333 336 341 342 342 342 344 344 344 344 343 344 342 343 342 337 338 338 337 337 337 337 336 335 332 329 331 331 330 324 321 320 322 323 324 324 325 324 323 326 328
335 336 337 337 339 339 340 340 341 342 344 343 343 346 344 343 340 333 336 335 334 334 335 333 332 331 327 318 322 329 327 325 324 321 319 316 316 317 318 318 319 320 323
334 335 334 333 333 335 334 334 334 338 341 342 344 344 344 342 338 332 334 333 330 329 328 329 329 327 325 314 316 321 326 323 322 321 319 315 313 313 313 313 314 314 316
331 329 326 326 327 328 329 331 332 334 333 333 339 344 342 340 333 333 332 329 330 326 323 322 322 323 317 310 312 317 325 319 318 317 319 319 318 316 316 315 314 313 314
328 325 325 324 321 324 324 327 328 329 328 327 328 334 339 334 331 330 327 326 326 326 322 320 319 320 317 307 309 318 321 317 317 317 319 318 316 310 312 316 314 313 310
320 320 321 321 319 318 321 321 321 323 320 321 320 323 335 331 328 325 323 323 324 323 321 315 315 311 314 304 306 315 317 316 315 316 314 307 311 305 307 318 316 313 312
318 320 319 318 317 317 318 316 315 313 314 315 316 316 318 319 319 318 320 319 319 318 313 311 311 311 310 308 304 306 314 312 311 311 308 307 302 300 301 306 313 310 308
316 318 315 314 315 316 316 313 312 312 313 313 313 312 311 311 311 311 312 312 316 315 312 309 306 310 308 306 303 304 306 309 306 304 304 302 298 298 298 301 300 302 307
315 317 314 313 313 315 315 313 311 312 311 310 309 309 309 309 309 309 309 308 309 308 307 304 305 305 307 308 303 302 304 306 305 305 301 300 298 299 301 300 301 303 306
315 317 316 314 311 313 313 312 311 310 309 307 307 308 307 307 308 307 309 308 307 305 304 304 305 307 307 308 308 308 306 306 306 305 305 302 302 301 304 305 305 305 304
317 317 314 312 311 311 310 311 310 310 308 307 306 305 305 304 301 299 302 304 304 306 305 306 308 305 304 304 302 303 303 304 303 306 306 305 304 303 303 303 304 304 304
316 313 312 312 310 310 310 310 310 310 311 309 308 306 304 301 300 299 296 296 296 295 294 296 302 301 297 294 293 293 293 294 295 304 304 303 302 301 301 302 301 302 301

GFSMW_sfc_thetae_018.txt.gz
Theta_e
350 353 355 357 358 354 354 354 352 345 355 367 354 357 361 369 357 358 361 361 359 358 358 357 357 358 351 352 354 359 353 352 351 348 347 347 351 356 352 354 361 356 357
347 349 353 354 352 351 351 352 347 342 347 353 358 359 359 359 362 360 360 359 357 358 356 358 359 360 353 354 353 351 353 353 352 343 340 334 340 347 352 353 353 355 361
346 347 348 351 350 349 351 351 350 345 343 345 354 356 357 357 353 352 348 351 352 353 354 354 354 358 357 353 354 352 349 345 348 350 341 333 331 344 350 352 352 356 365
344 343 344 346 350 346 348 351 350 348 348 350 352 355 354 348 347 347 348 350 350 351 351 351 352 351 359 358 351 349 346 349 345 352 346 348 346 341 340 347 349 354 358
340 340 342 344 347 345 347 346 351 351 352 353 355 356 351 348 347 346 350 351 351 350 349 350 350 352 349 354 352 350 345 345 349 351 345 349 345 348 342 338 344 348 352
338 340 345 345 346 347 346 344 347 349 354 358 357 352 346 346 344 346 344 344 345 346 350 350 350 352 354 353 355 351 344 344 349 353 350 344 341 340 344 340 342 341 346
338 340 341 340 345 345 344 346 351 353 357 354 352 350 349 346 345 346 343 345 343 347 351 350 350 350 352 353 352 349 347 346 349 351 350 348 344 343 350 346 335 338 340
337 338 340 341 342 342 345 345 348 351 354 353 351 351 348 346 346 347 345 344 345 348 350 349 349 349 350 350 352 355 352 351 353 350 353 351 347 347 345 341 342 335 341
336 338 340 342 343 342 346 348 350 352 354 352 351 350 349 349 347 349 348 345 348 347 350 350 349 347 349 350 350 347 351 352 353 352 352 352 350 350 347 345 342 337 328
340 342 342 343 342 345 350 351 353 354 352 351 349 347 347 349 348 347 346 345 348 349 347 348 348 350 350 351 351 352 351 348 350 349 347 351 350 350 348 343 343 352 340
342 343 343 344 343 345 348 350 352 351 349 349 348 346 348 348 348 346 347 345 346 346 346 343 342 346 348 350 351 349 344 344 343 343 344 344 348 346 346 354 351 350 348
343 345 345 343 344 344 346 347 347 346 348 349 349 347 349 349 347 346 346 345 344 345 344 344 341 341 342 345 345 342 341 340 339 339 340 341 342 347 349 350 347 346 345
343 344 345 345 345 343 343 347 346 345 347 348 348 347 348 349 347 345 346 346 344 343 343 342 340 341 340 338 335 335 333 330 333 334 334 335 340 338 338 335 335 338 338
342 344 344 342 340 344 346 347 346 346 347 348 348 347 349 349 346 345 343 344 343 342 342 342 340 340 339 340 339 336 333 331 329 329 328 327 329 330 330 328 329 332 331
340 342 341 339 342 346 347 348 348 348 349 348 347 347 349 350 348 343 341 342 341 341 340 339 339 339 337 335 338 335 334 331 328 323 322 324 325 324 325 327 326 330 329
340 339 337 339 344 345 346 346 347 349 350 348 347 349 349 348 345 342 340 340 338 338 337 336 336 335 331 318 323 332 332 331 329 325 324 322 319 317 318 319 320 323 329
340 336 337 340 345 346 346 345 346 346 348 348 347 348 349 347 343 343 340 339 335 335 333 333 334 333 329 316 318 326 333 330 329 328 324 322 319 319 321 318 319 318 319
341 341 341 342 342 341 342 341 343 345 345 342 342 346 347 345 340 342 338 336 333 331 331 332 333 331 320 312 314 322 329 328 328 328 327 325 324 322 323 321 318 317 318
343 340 338 338 337 336 338 339 341 341 339 335 333 336 335 343 338 338 336 337 332 329 329 333 333 330 323 309 310 322 327 325 324 324 323 322 320 311 314 321 318 315 312
332 334 334 332 330 327 333 334 333 331 330 327 330 331 330 337 336 337 334 335 332 330 328 328 329 317 323 306 307 317 324 323 320 321 318 307 314 306 308 323 321 317 316
329 331 332 330 328 328 327 327 326 324 323 323 322 320 320 324 328 329 331 328 329 327 326 320 313 315 316 315 305 307 326 323 319 314 311 308 302 302 303 308 318 313 313
327 328 326 324 324 325 325 323 321 320 321 320 318 316 315 314 315 317 321 323 321 321 322 320 316 314 314 306 304 304 307 312 313 307 307 305 299 298 300 306 301 303 308
326 327 324 320 321 322 323 318 316 318 316 315 314 313 312 311 311 311 313 311 312 310 308 307 305 306 309 307 302 303 305 306 310 310 303 301 298 298 302 301 302 303 311
324 324 321 319 317 318 318 318 316 317 316 313 311 310 310 310 311 311 311 309 309 307 306 306 306 308 310 310 310 308 306 305 304 304 307 306 304 302 306 307 308 308 308
322 322 320 318 316 317 317 317 317 317 315 314 313 311 309 306 302 300 302 305 305 307 310 309 310 307 308 308 303 304 310 307 306 305 309 309 309 308 307 308 308 309 309
319 318 318 318 318 317 317 317 318 319 318 315 313 310 307 305 304 303 300 297 297 296 295 298 304 302 297 294 294 294 294 297 298 307 310 310 310 309 308 307 306 306 305

GFSMW_sfc_thetae_021.txt.gz
Theta_e
350 352 354 355 360 361 361 359 358 355 352 353 354 356 351 358 358 358 362 360 360 360 363 363 362 362 358 356 359 354 356 347 349 351 345 345 348 353 354 354 353 357 357
349 351 355 357 358 357 357 357 355 350 349 354 354 361 356 357 360 363 360 361 358 358 359 360 358 360 358 359 358 358 356 353 358 343 340 334 336 344 351 352 359 356 361
348 351 353 353 354 354 354 355 352 351 347 351 355 365 361 360 359 357 350 353 354 354 355 355 359 358 360 358 354 355 351 347 354 352 341 332 328 334 351 354 351 357 362
348 351 349 351 350 352 355 355 355 352 349 350 348 357 356 350 349 347 350 352 353 351 352 354 352 357 360 355 355 357 352 352 347 354 347 351 346 337 335 353 355 360 359
345 345 346 350 351 348 349 352 353 352 354 356 359 359 357 348 350 347 351 357 358 353 351 352 351 353 356 357 354 355 355 354 352 348 352 349 341 345 339 337 342 350 350
342 344 348 350 346 349 348 349 352 353 355 355 356 355 349 348 346 348 345 344 345 349 352 352 353 355 354 353 357 356 353 353 347 349 350 348 343 339 339 342 343 337 344
341 344 345 345 346 346 344 347 350 351 356 356 354 352 351 349 348 349 345 348 344 347 354 353 352 351 353 353 355 354 352 352 346 347 347 352 344 356 349 349 337 335 344
340 342 343 344 345 345 347 350 352 355 355 354 353 353 351 348 346 349 346 346 346 351 353 350 351 352 350 351 352 348 348 352 348 347 350 350 348 345 344 348 348 340 335
338 341 343 343 345 345 347 349 352 354 354 353 353 353 352 351 349 350 351 346 351 349 351 350 350 351 350 351 352 352 351 353 352 350 348 351 351 346 345 347 348 346 330
338 341 343 344 344 346 348 350 352 353 353 352 351 350 349 350 351 350 350 348 349 349 348 347 349 348 351 352 353 354 352 351 352 351 350 352 357 355 358 349 345 349 341
339 341 343 344 344 348 348 350 352 352 349 351 349 349 348 348 353 349 349 347 348 348 346 346 345 345 348 350 351 349 347 347 347 346 345 345 350 351 358 359 356 349 349
341 343 344 344 344 345 347 348 349 348 349 351 350 349 349 348 348 347 347 347 346 348 346 345 344 344 342 345 345 342 342 341 340 341 342 342 345 347 350 350 348 347 347
343 344 345 343 343 345 345 345 345 346 348 351 349 348 348 349 348 347 346 347 344 344 344 343 342 343 343 341 341 339 336 335 334 334 334 336 339 336 337 338 338 339 341
343 344 345 345 346 345 345 346 345 346 348 348 347 348 348 349 349 347 345 345 344 344 342 343 342 342 341 340 339 338 335 333 331 330 330 332 331 333 334 333 334 336 333
341 345 345 344 343 343 347 347 347 348 349 348 347 348 349 349 349 347 345 344 343 342 341 341 341 338 337 334 338 335 334 332 330 328 324 324 324 324 326 330 331 334 331
341 345 343 340 341 346 347 347 348 349 349 347 346 351 350 349 349 346 342 343 340 340 340 339 337 336 332 320 325 333 334 332 331 330 331 330 327 321 321 322 322 328 331
341 344 340 342 346 346 349 348 349 353 351 351 350 350 350 350 348 347 343 339 338 338 338 337 337 334 330 318 320 327 333 332 330 330 329 326 325 327 325 321 321 321 322
343 342 341 344 348 349 349 349 348 349 348 347 347 348 350 349 350 346 343 340 336 335 334 334 334 332 323 313 314 320 334 331 330 329 328 328 326 320 324 321 317 315 315
346 344 345 346 345 345 345 347 346 347 345 342 340 339 343 346 344 344 340 339 335 334 333 334 332 332 327 312 314 320 331 329 327 324 320 324 322 312 313 322 318 316 312
348 344 341 340 339 337 341 341 339 338 335 332 333 333 332 338 340 339 338 338 335 334 332 331 330 322 327 307 309 314 327 326 322 322 319 308 313 307 309 326 323 319 319
340 339 339 337 336 335 335 334 333 327 329 329 328 326 322 322 331 333 334 334 334 331 330 325 325 322 312 313 306 308 327 325 322 319 314 312 304 303 304 310 322 317 317
335 338 335 333 333 333 333 329 324 324 325 324 323 320 318 316 318 320 322 322 328 327 325 323 323 318 314 305 304 304 307 315 318 314 312 307 300 299 300 309 302 303 307
335 336 332 327 327 328 329 325 322 323 323 321 319 317 315 313 313 313 315 313 313 319 316 307 307 307 307 307 304 303 305 307 315 313 304 301 299 299 303 302 303 305 312
331 331 330 327 324 325 325 324 324 324 323 319 315 313 311 309 310 311 312 310 309 309 306 307 310 308 310 310 311 309 307 305 304 305 306 307 307 303 306 306 309 311 310
328 327 326 324 321 323 323 324 323 324 322 320 318 315 311 307 304 302 304 307 304 308 310 311 312 312 309 306 300 304 309 310 307 307 305 304 311 310 310 311 311 310 310
325 324 323 322 321 322 322 323 324 324 323 320 319 315 314 312 310 308 304 298 298 297 296 298 303 302 298 295 295 295 297 298 299 306 309 311 311 310 310 309 309 309 306

GFSMW_sfc_thetae_024.txt.gz
Theta_e
348 349 350 353 361 363 363 364 361 363 358 345 342 347 355 361 358 347 345 339 337 358 360 358 356 356 354 353 353 350 343 341 345 344 347 351 353 350 350 355 353 353 354
347 350 355 360 361 360 363 362 360 356 357 344 347 349 355 361 362 361 355 351 353 359 361 358 354 353 350 349 350 349 344 345 349 344 344 335 338 343 349 351 352 352 354
346 350 352 358 356 356 358 359 357 355 354 351 350 351 355 353 356 355 357 358 359 359 359 356 357 353 353 349 349 348 345 341 343 349 341 334 329 337 346 348 351 351 354
347 351 352 351 351 354 358 360 355 354 353 353 352 355 349 347 354 357 357 359 359 358 356 355 355 354 353 351 350 350 349 347 342 346 344 344 344 334 331 343 347 351 353
346 348 349 350 353 354 353 358 356 356 356 356 358 358 353 353 357 355 356 359 357 356 352 354 354 353 353 352 350 349 347 347 343 343 341 340 342 344 337 333 339 349 350
345 347 351 352 351 349 350 351 353 356 358 360 360 361 358 355 352 352 351 348 351 354 353 353 353 354 352 351 350 351 350 344 344 346 343 340 337 338 337 336 338 337 342
342 345 346 348 348 348 347 350 352 353 356 357 358 357 358 357 355 354 348 351 346 348 351 353 352 351 353 352 352 350 349 346 344 345 344 341 341 342 340 340 337 335 341
341 343 344 346 346 345 347 349 351 352 357 357 357 359 361 355 350 353 350 350 348 350 351 351 351 351 351 353 355 353 354 353 349 347 347 345 345 346 343 340 336 334 336
340 342 343 344 346 345 348 350 354 356 357 354 357 358 359 357 354 356 354 348 351 348 349 348 349 349 351 352 353 349 349 352 349 349 348 347 345 346 345 345 344 338 330
338 341 341 343 345 346 349 351 354 355 353 354 355 353 355 355 351 349 350 348 349 349 348 345 346 348 349 350 351 348 345 343 343 346 347 342 343 346 347 345 344 344 338
337 342 341 343 343 344 346 350 351 354 353 353 354 353 354 351 353 348 349 347 349 347 345 344 343 342 343 347 347 344 346 344 344 344 344 344 346 345 345 347 345 342 340
339 341 342 343 343 345 346 346 351 350 351 354 353 354 354 351 350 348 349 349 346 346 344 343 344 345 342 341 341 339 339 338 337 336 340 339 342 341 343 344 343 342 341
342 343 344 344 344 346 346 344 347 348 350 352 352 352 352 350 350 347 348 348 344 344 343 342 343 340 339 338 338 337 334 333 332 333 332 332 335 333 334 337 338 338 339
344 345 346 347 349 348 348 345 345 347 349 351 350 351 350 351 349 350 348 347 346 342 343 342 341 341 339 336 335 335 333 331 329 329 328 329 330 332 333 334 334 334 333
344 346 346 348 346 348 348 350 349 349 351 352 349 353 348 349 350 347 346 345 344 340 342 342 339 338 334 328 333 333 332 331 328 328 327 325 325 325 328 330 331 332 330
343 346 347 344 344 344 348 351 351 351 353 351 348 353 349 350 348 347 344 344 340 339 342 340 336 332 328 320 323 331 331 330 329 327 329 328 325 322 323 324 324 327 330
344 346 343 343 346 347 354 351 354 356 353 350 350 348 351 349 346 346 340 341 338 338 339 337 335 330 326 317 319 323 332 330 330 330 329 326 323 326 324 322 321 320 323
345 345 342 345 349 349 351 353 351 352 349 346 345 346 345 348 348 346 342 341 337 333 333 335 334 328 319 316 314 317 330 328 326 324 327 326 321 317 321 316 311 309 310
349 344 347 349 347 349 350 350 348 350 342 339 339 337 335 338 347 339 337 338 336 335 335 334 333 329 321 311 310 320 329 326 324 320 315 323 320 313 313 319 315 312 309
348 347 348 344 344 343 347 346 340 336 333 331 329 329 329 328 339 339 336 337 336 332 332 329 327 320 320 308 307 313 331 325 320 321 317 310 309 308 309 327 324 320 320
341 343 340 337 338 339 342 336 331 327 327 327 326 324 322 321 326 331 332 334 331 331 327 326 324 319 312 312 306 307 320 326 321 316 314 312 305 302 303 309 316 312 315
338 337 334 332 335 337 335 327 323 326 325 323 320 318 317 317 318 320 320 322 327 325 322 321 316 311 310 305 304 304 307 316 317 314 313 309 301 300 301 307 302 304 307
336 332 329 327 328 332 330 323 323 324 322 320 317 315 314 314 313 314 315 314 314 313 311 310 310 307 309 309 303 302 305 309 314 308 303 302 299 299 303 303 304 305 310
331 330 328 326 324 326 325 324 324 324 320 317 315 313 310 309 310 311 311 311 311 309 307 308 308 308 310 311 310 308 305 305 305 306 307 306 307 305 308 306 312 312 309
328 329 326 324 322 324 324 324 324 324 321 319 316 314 313 311 307 304 306 309 307 309 310 310 311 310 310 307 301 302 311 312 308 309 310 304 303 305 312 312 312 313 313
328 327 326 324 323 324 322 324 326 326 323 321 318 317 315 314 312 310 306 299 299 297 297 299 304 302 299 296 295 296 297 298 299 308 308 308 311 311 311 311 310 310 308

GFSMW_sfc_thetae_027.txt.gz
Theta_e
342 344 346 354 356 355 353 349 348 344 342 339 338 337 339 344 345 344 340 337 339 339 339 348 346 345 343 343 343 343 340 339 340 339 333 341 343 345 346 348 349 350 351
340 349 352 353 353 352 353 352 347 344 340 338 339 341 346 347 350 349 346 344 343 339 347 345 344 344 342 340 342 342 338 337 340 332 329 327 331 339 345 345 346 347 349
342 350 352 352 353 349 352 348 347 345 344 343 347 343 345 346 343 343 345 348 349 349 345 344 342 342 342 341 341 339 337 335 339 340 334 326 323 329 337 341 344 343 347
345 347 350 347 349 350 353 348 347 345 346 346 342 344 340 338 341 343 344 344 346 346 345 344 344 343 343 341 342 343 339 337 333 337 341 339 337 326 324 334 339 342 345
346 345 345 345 349 351 350 347 346 346 344 341 343 343 341 343 344 341 342 342 343 344 345 345 345 343 343 342 342 341 339 338 336 335 335 334 336 337 328 324 329 339 343
345 346 345 345 346 347 351 347 345 342 345 347 347 346 342 341 340 339 339 338 341 342 344 346 344 343 342 341 342 341 340 338 339 339 338 334 332 332 332 327 327 327 333
342 342 341 341 340 341 345 347 342 344 346 345 347 342 342 341 339 338 337 339 339 340 341 343 343 343 342 342 341 340 339 338 336 337 337 337 336 337 336 331 327 327 332
341 340 342 339 340 341 343 344 342 343 343 346 343 343 343 342 341 340 340 340 339 339 341 341 342 343 344 343 341 341 339 339 338 337 337 337 339 340 338 333 328 326 327
338 339 340 339 339 339 340 343 343 343 347 345 343 342 342 340 338 339 339 342 339 341 339 340 340 342 344 343 341 340 339 340 339 338 337 336 338 341 340 340 335 328 322
337 338 339 339 338 339 341 343 345 347 347 344 344 342 341 338 340 340 337 337 341 341 340 341 340 339 341 342 340 340 340 338 339 340 337 340 340 341 339 338 337 337 329
336 337 338 338 338 340 342 345 345 345 344 343 343 341 342 342 340 340 337 340 338 338 338 340 340 338 336 336 335 335 335 334 333 337 337 337 338 337 337 337 336 334 332
335 336 337 338 337 336 333 335 336 342 343 344 341 341 342 340 339 339 337 338 338 338 337 338 337 336 337 335 332 330 330 330 329 331 331 333 334 331 332 334 333 333 333
335 335 336 336 336 330 329 331 333 339 344 343 342 343 341 339 337 337 336 339 338 334 333 335 333 331 334 334 333 330 328 327 327 327 326 327 330 328 330 330 330 329 331
335 335 335 335 338 332 329 328 331 344 344 343 342 342 341 340 338 338 336 336 339 334 332 332 332 328 328 332 332 329 327 326 323 322 321 321 322 327 327 326 327 327 326
337 336 338 337 338 337 334 333 340 342 343 345 343 342 342 343 340 338 336 335 334 333 333 330 327 326 324 327 331 330 328 325 323 320 319 319 325 327 327 323 323 324 322
338 340 339 337 337 338 338 343 343 343 343 341 344 343 342 340 337 336 335 333 334 334 331 327 325 322 321 319 323 329 327 327 325 321 319 319 320 321 321 320 322 324 319
338 338 336 336 335 335 341 342 346 345 343 344 344 342 341 339 339 337 336 333 331 333 328 325 323 318 314 315 318 326 325 324 324 323 317 315 317 315 309 311 312 315 321
340 336 336 337 338 342 344 343 344 343 340 337 336 334 335 336 337 337 336 333 332 330 328 324 319 314 311 312 312 322 320 316 313 314 317 313 311 312 307 303 301 300 304
337 336 338 341 342 341 343 341 336 334 331 328 327 326 327 328 334 336 334 333 330 330 327 327 321 313 307 309 309 318 318 314 310 309 310 310 308 311 314 307 303 301 301
337 338 337 336 334 336 334 330 327 325 323 324 323 321 321 324 333 336 334 332 331 329 324 320 316 315 307 306 306 313 317 312 310 308 306 310 306 306 310 311 308 304 303
333 333 332 331 332 333 328 323 321 320 320 319 318 317 318 319 324 329 332 331 328 324 321 317 311 308 306 306 305 307 316 315 310 307 305 303 304 302 304 305 306 304 304
330 330 327 326 329 326 323 319 319 320 318 316 316 314 314 315 318 319 320 325 324 321 317 312 308 307 306 305 303 304 308 313 309 306 306 302 300 299 302 301 302 303 303
327 327 325 323 325 322 321 317 320 319 317 315 313 312 312 312 313 314 315 315 315 313 310 309 306 306 307 308 303 302 305 308 305 303 303 302 300 300 302 303 303 304 301
325 325 322 321 320 322 319 320 320 318 316 313 311 310 309 308 310 310 310 311 310 309 309 307 306 308 308 307 305 304 302 305 303 305 304 305 304 304 306 301 302 299 298
325 323 319 320 320 321 321 323 322 319 315 313 310 308 306 303 303 302 304 307 303 307 309 309 310 309 306 303 299 300 303 306 300 304 303 299 297 296 297 302 300 300 300
325 321 319 320 321 320 320 321 322 319 315 312 311 309 307 306 304 302 300 299 299 298 297 298 303 302 299 297 296 295 296 299 299 299 299 300 300 300 299 298 299 297 300

GFSMW_sfc_thetae_030.txt.gz
Theta_e
339 342 344 350 352 350 348 346 342 340 342 335 336 337 338 342 345 344 341 338 337 340 334 339 344 343 341 340 339 335 332 333 337 335 333 334 340 340 339 343 346 347 347
338 344 348 351 349 348 346 342 340 337 337 336 335 336 340 343 347 346 343 343 343 340 338 343 343 342 340 338 338 339 335 337 340 332 327 322 329 336 341 342 345 346 346
342 345 348 348 350 349 345 342 340 338 337 336 342 342 342 342 339 340 342 344 347 346 344 341 340 339 339 337 337 337 335 332 335 337 329 324 323 328 333 338 342 344 342
345 346 347 347 347 348 346 344 342 340 339 340 339 341 337 337 338 340 340 341 343 342 343 342 342 340 340 338 338 340 337 334 331 336 340 338 334 327 325 331 336 341 342
346 346 347 348 348 350 347 344 342 341 343 339 337 336 339 340 340 338 336 338 340 342 344 343 341 339 339 340 338 338 337 335 333 331 333 335 334 334 330 325 329 335 339
345 345 345 347 345 349 345 344 340 340 340 339 339 342 339 337 337 335 335 336 338 338 340 343 341 340 339 338 339 339 337 336 335 335 335 334 330 329 331 328 328 326 330
342 340 340 342 340 345 344 343 339 338 341 344 344 341 339 339 335 334 335 335 335 335 336 338 339 339 340 340 338 337 336 335 334 334 335 337 335 335 334 332 329 327 328
341 339 338 337 339 345 344 341 339 340 341 343 341 340 339 338 337 336 335 335 335 334 336 338 339 340 341 340 339 338 338 336 335 333 334 334 335 337 335 333 330 326 326
335 338 337 337 337 340 340 339 339 340 342 340 340 339 339 336 335 335 335 333 337 339 338 340 337 339 340 339 338 337 336 337 336 336 334 333 333 337 338 337 334 329 321
336 336 336 337 336 337 340 342 341 340 342 341 340 339 336 337 336 334 333 335 335 337 338 339 337 335 335 335 335 334 333 333 335 336 336 335 335 336 338 337 337 335 328
335 336 336 336 336 338 339 338 339 339 339 340 340 338 337 337 336 333 334 333 332 334 338 337 333 332 331 330 329 329 329 328 329 330 332 331 332 333 335 335 335 333 332
335 336 336 335 336 334 336 339 341 341 341 341 338 338 337 337 335 332 332 335 332 332 334 331 330 330 330 328 329 328 328 325 324 325 327 328 330 328 330 331 331 331 330
329 333 334 334 333 332 334 336 331 338 340 340 339 337 336 335 334 332 332 334 331 330 331 330 328 328 328 327 326 324 324 322 320 320 320 322 325 326 325 326 326 326 326
325 332 332 332 331 328 327 331 334 338 340 340 339 337 336 335 333 333 333 334 332 330 328 327 325 325 327 327 325 324 321 320 318 318 319 321 325 326 322 324 324 322 324
324 332 331 332 330 326 326 328 331 333 341 340 338 340 338 335 334 333 332 330 330 330 326 324 322 321 323 325 325 324 322 319 317 317 318 320 323 323 324 321 321 320 319
334 333 336 334 332 333 330 329 331 338 341 340 339 340 339 337 334 332 331 330 330 327 323 321 320 317 318 317 323 325 324 321 318 316 315 316 316 314 318 321 324 322 316
336 335 336 337 336 335 336 336 338 341 341 341 340 339 338 337 334 333 332 330 329 326 321 319 317 311 311 314 320 323 318 317 317 312 311 312 312 308 305 310 314 317 321
333 335 336 334 333 338 340 341 341 338 334 331 331 331 334 335 334 334 332 331 330 327 321 319 313 309 309 311 316 318 313 312 312 313 310 308 308 308 302 301 300 301 307
331 336 335 335 338 338 337 333 331 330 328 326 325 325 326 327 336 335 331 331 328 327 324 319 313 308 307 307 310 315 311 308 307 308 308 307 307 311 310 304 302 301 301
334 336 336 336 335 331 330 327 325 324 322 321 320 320 324 326 334 334 330 331 329 323 320 315 312 310 306 305 306 314 312 307 306 304 303 309 306 307 309 306 304 304 304
330 330 329 328 326 326 327 323 321 319 318 317 316 316 318 320 326 332 332 328 323 320 315 311 309 305 305 307 304 309 314 312 306 304 302 300 304 302 302 306 305 303 302
326 325 324 323 322 322 321 318 317 316 316 316 316 314 314 316 319 323 326 324 322 316 312 309 307 306 306 304 303 304 309 310 305 304 301 300 300 299 300 300 301 302 303
325 324 323 320 320 320 319 317 316 314 313 314 313 311 311 312 313 316 317 316 316 313 310 308 307 307 308 307 303 302 304 307 305 303 302 303 301 300 301 302 303 300 298
322 321 321 320 319 316 317 316 315 315 313 313 310 310 309 307 309 311 312 312 312 310 309 308 307 308 308 304 304 303 303 304 302 306 305 303 302 302 302 300 300 298 298
323 319 317 319 319 319 319 319 317 315 312 310 309 307 305 306 304 302 305 306 304 308 309 309 309 308 305 302 298 299 302 304 300 302 301 300 297 297 297 298 298 295 296
318 319 319 319 319 320 320 320 315 312 309 307 305 303 302 301 302 303 300 300 299 298 298 301 303 302 300 296 295 295 295 297 298 300 298 296 297 298 295 295 296 295 297